cover

 

Get it on iTunes StoreListen on Apple Music

Ronski Speed

#Trackname / Key / BPM / Publish dateArtists, Remixers / Label
1 138 bpm, 10A / B minor, 2019-03-15, Trance,  0  5
2 138 bpm, 10A / B minor, 2019-03-15, Trance,  0  5
3 138 bpm, 10A / B minor, 2019-03-15, Trance,  0  5
4 134 bpm, 1A / Ab minor, 2019-03-01, Trance,  2  1
5 134 bpm, 4A / F minor, 2019-02-21, Trance,  0  19
6 132 bpm, 7A / D minor, 2019-02-15, Trance,  0  30
7 128 bpm, 5B / Eb major, 2019-02-04, Trance,  1  2
8 134 bpm, 6A / G minor, 2019-02-04, Trance,  3  2
9 138 bpm, 11A / F# minor, 2019-01-25, Trance,  0  50
10 138 bpm, 5B / Eb major, 2018-12-17, Trance,  0  40
11 138 bpm, 5A / C minor, 2018-12-17, Trance,  0  40
12 134 bpm, 8B / C major, 2018-11-26, Trance,  0  10
13 138 bpm, 1A / Ab minor, 2018-11-19, Trance,  3  2
14 128 bpm, / , 2018-11-19, Trance,  0  2
15 134 bpm, 8B / C major, 2018-11-16, Psy-Trance,  0  12
16 132 bpm, 7A / D minor, 2018-11-09, Trance,  0  30
17 132 bpm, 7A / D minor, 2018-11-05, Trance,  1  1
18 138 bpm, 10B / D major, 2018-11-02, Trance,  0  20
19 138 bpm, 6B / Bb major, 2018-11-02, Trance,  0  20
20 130 bpm, 12B / E major, 2018-11-02, Trance,  1  20
21 126 bpm, 5B / Eb major, 2018-11-02, Trance,  0  20
22 138 bpm, 9A / E minor, 2018-11-02, Trance,  1  20
23 140 bpm, 6B / Bb major, 2018-11-02, Trance,  0  20
24 134 bpm, 6B / Bb major, 2018-11-02, Trance,  0  20
25 131 bpm, 11A / F# minor, 2018-11-02, Trance,  0  20
26 134 bpm, 4B / Ab major, 2018-11-02, Trance,  0  20
27 134 bpm, 6A / G minor, 2018-11-02, Trance,  1  20
28 138 bpm, 11B / A major, 2018-11-02, Trance,  0  20
29 138 bpm, 8A / A minor, 2018-11-02, Trance,  0  20
30 110 bpm, 6B / Bb major, 2018-11-02, Trance,  0  20
31 128 bpm, 1A / Ab minor, 2018-11-02, Trance,  1  20
32 128 bpm, 2A / Eb minor, 2018-11-02, Trance,  0  20
33 128 bpm, 7A / D minor, 2018-11-02, Trance,  0  20
34 128 bpm, 8A / A minor, 2018-11-02, Trance,  0  20
35 128 bpm, 5B / Eb major, 2018-11-02, Trance,  0  20
36 138 bpm, 2B / F# major, 2018-11-02, Trance,  0  20
37 138 bpm, 7A / D minor, 2018-11-02, Trance,  0  20
38 138 bpm, 7B / F major, 2018-10-12, Trance,  0  50
39 130 bpm, 7B / F major, 2018-10-12, Trance,  0  50
40 128 bpm, 9B / G major, 2018-10-08, Trance,  4  1
41 0 bpm, / , 2018-09-28, Trance,  0  25
42 0 bpm, / , 2018-09-28, Trance,  0  25
43 140 bpm, 6B / Bb major, 2018-09-03, Trance,  0  3
44 138 bpm, 6B / Bb major, 2018-09-03, Trance,  2  3
45 130 bpm, 7A / D minor, 2018-09-03, Trance,  0  3
46 132 bpm, 9A / E minor, 2018-08-31, Trance,  0  100
47 138 bpm, 10A / B minor, 2018-07-06, Trance,  0  20
48 138 bpm, 6B / Bb major, 2018-06-18, Trance,  4  1
49 124 bpm, 4B / Ab major, 2018-05-28, Trance,  0  2
50 134 bpm, 4A / F minor, 2018-05-28, Trance,  1  2
51 134 bpm, 4B / Ab major, 2018-05-25, Trance,  0  30
52 132 bpm, 9A / E minor, 2018-05-25, Trance,  1  21
53 132 bpm, 9A / E minor, 2018-05-18, Trance,  0  21
54 66 bpm, 9A / E minor, 2018-04-02, Trance,  6  1
55 138 bpm, 11B / A major, 2018-02-02, Trance,  0  100
56 137 bpm, 9A / E minor, 2018-01-03, Trance,  0  3
57 138 bpm, 8A / A minor, 2018-01-03, Trance,  0  3
58 138 bpm, 9A / E minor, 2018-01-03, Trance,  1  3
59 138 bpm, 11B / A major, 2017-12-22, Trance,  0  15
60 138 bpm, 10A / B minor, 2017-12-22, Trance,  0  26
61 138 bpm, 7A / D minor, 2017-12-22, Trance,  0  25
62 123 bpm, 12B / E major, 2017-12-15, Deep House,  0  26
63 134 bpm, 8A / A minor, 2017-12-15, Trance,  0  26
64 138 bpm, 9A / E minor, 2017-12-15, Dance,  0  26
65 138 bpm, 7A / D minor, 2017-12-15, Trance,  0  26
66 138 bpm, 5A / C minor, 2017-12-11, Trance,  1  2
67 132 bpm, 5A / C minor, 2017-12-11, Trance,  1  2
68 138 bpm, 7A / D minor, 2017-12-08, Trance,  0  25
69 138 bpm, 10A / B minor, 2017-12-01, Trance,  0  20
70 134 bpm, 12A / Db minor, 2017-12-01 (2011-04-05), Trance,  0  1
71 128 bpm, 7A / D minor, 2017-12-01 (2010-09-28), Trance,  0  24
72 138 bpm, 7A / D minor, 2017-11-20, Trance,  1  4
73 138 bpm, 8A / A minor, 2017-11-10, Trance,  0  40
74 132 bpm, 7A / D minor, 2017-11-10, Trance,  0  40
75 138 bpm, 11B / A major, 2017-11-10, Trance,  4  1
76 138 bpm, 7A / D minor, 2017-10-16, Trance,  1  1
77 134 bpm, 11A / F# minor, 2017-10-13, Trance,  0  21
78 134 bpm, 8A / A minor, 2017-10-06, Trance,  3  3
79 138 bpm, 6B / Bb major, 2017-09-29, Trance,  0  20
80 134 bpm, 4B / Ab major, 2017-09-22, Trance,  0  40
81 134 bpm, 4B / Ab major, 2017-09-22, Trance,  0  40
82 130 bpm, 12A / Db minor, 2017-09-08, Trance,  0  30
83 134 bpm, 9B / G major, 2017-08-25, Trance,  0  16
84 126 bpm, 11B / A major, 2017-07-31, Trance,  4  2
85 134 bpm, 11A / F# minor, 2017-07-31, Trance,  4  2
86 138 bpm, 4B / Ab major, 2017-07-28, Trance,  0  25
87 128 bpm, 11A / F# minor, 2017-06-30, Trance,  0  30
88 130 bpm, 10A / B minor, 2017-06-30, Trance,  0  24
89 138 bpm, 6B / Bb major, 2017-06-26, Trance,  1  2
90 138 bpm, 3A / Bb minor, 2017-05-29, Trance,  3  2
91 138 bpm, 3A / Bb minor, 2017-05-29, Trance,  0  2
92 138 bpm, 10A / B minor, 2017-05-24, Trance,  0  25
93 138 bpm, 10A / B minor, 2017-05-19, Trance,  0  20
94 138 bpm, 10A / B minor, 2017-04-28, Trance,  0  25
95 138 bpm, 4A / F minor, 2017-04-28, Trance,  0  25
96 138 bpm, 10A / B minor, 2017-04-28, Trance,  0  20
97 138 bpm, 10B / D major, 2017-04-21, Trance,  0  20
98 138 bpm, 8B / C major, 2017-04-14, Trance,  0  40
99 138 bpm, 10A / B minor, 2017-04-07, Trance,  0  10
100 138 bpm, 1A / Ab minor, 2017-04-07, Trance,  0  13
×

Sign in

Sign in to access your personalized pages, follow artists and labels you love, and create playlists fromyour favorite tracks.

Please wait...